Location: Betra
(48.4113°N, 8.6634°E)
Time: 17:32:58
(UTC+00:00)

Cosmos 1455 - Pass Details

Date: 23 May 2024
Orbit: 445 x 460 km, 82.5° (Epoch: 16 June)

Event Time Altitude Azimuth Distance (km) Brightness Sun altitude
Rises 00:25:17 0° 357° (N) 2,460 7.0 -19.5°
Reaches altitude 10° 00:27:27 10° 5° (N) 1,585 5.8 -19.4°
Maximum altitude 00:30:42 39° 76° (ENE) 696 3.0 -19.3°
Enters shadow 00:31:55 28° 121° (ESE) 871 3.2 -19.2°
